Terminal Aerodrome Forecast
Issued by NWS Tulsa, OK

Home | Current Version | Previous Version | Text Only | Print | Product List | Glossary On
Versions: 1 2 3 4 5 6 7 8 9 10 11 12 13
000
FTUS44 KTSA 301700
TAFFSM
TAF
KFSM 301720Z 3018/3118 06003KT P6SM BKN150 BKN250
     FM310900 08003KT P6SM OVC120=

USA.gov is the U.S. government's official web portal to all federal, state and local government web resources and services.